Location: Dalton Gardens
(47.7327°N, 116.7697°W)
Time: 23:34:14
(UTC+00:00)

Envisat - Pass Details

Date: 08 December 2022
Orbit: 763 x 765 km, 98.2° (Epoch: 08 February)

Event Time Altitude Azimuth Distance (km) Brightness Sun altitude
Rises 12:52:28 0° 7° (N) 3,246 6.3 -24.3°
Reaches altitude 10° 12:54:53 10° 1° (N) 2,315 5.4 -23.9°
Enters shadow 12:56:20 18° 353° (N) 1,800 4.7 -23.6°
